Regional Weather Roundup
Issued by NWS

Home | Current Version | Previous Version | Text Only | Print | Product List | Glossary On
Versions: 1 2 3 4 5 6 7 8 9 10 11 12 13 14 15 16 17 18 19 20 21 22 23 24 25 26 27 28 29 30 31 32 33 34 35 36 37 38 39 40 41 42 43 44 45 46 47 48 49 50
000
ASUS43 KMKX 281811
RWRWI

WISCONSIN REGIONAL WEATHER ROUNDUP
NATIONAL WEATHER SERVICE MILWAUKEE/SULLIVAN WI
1200 PM CST TUE FEB 28 2017

NOTE: "FAIR" INDICATES FEW OR NO CLOUDS BELOW 12,000 FEET WITH NO
SIGNIFICANT WEATHER AND/OR OBSTRUCTIONS TO VISIBILITY.

WIZ001-002-006>008-014>016-023>028-281900-
NORTHWEST WISCONSIN

CITY           SKY/WX    TMP DP  RH WIND       PRES   REMARKS
SUPERIOR ARPT  LGT SNOW  32  32 100 NE9       29.80F WCI  25
6HR MIN TEMP:  32; 6HR MAX TEMP:  32; 6HR PCP:  0.04;

ASHLAND        LGT SNOW  32  31  96 NE12      29.80F FOG     WCI  23
6HR MIN TEMP:  30; 6HR MAX TEMP:  32; 6HR PCP:  0.09;

HAYWARD        CLOUDY    35  31  85 N10       29.75S WCI  27
6HR MIN TEMP:  34; 6HR MAX TEMP:  37; 6HR PCP: TRACE;

SIREN          CLOUDY    35  32  89 NE10      29.74F WCI  27
6HR MIN TEMP:  33; 6HR MAX TEMP:  35;

CUMBERLAND     CLOUDY    37  32  81 N7        29.71S WCI  32
RICE LAKE      CLOUDY    39  35  83 N9        29.72S WCI  33
6HR MIN TEMP:  35; 6HR MAX TEMP:  40;

CHETEK         CLOUDY    40  35  83 NE5       29.70F
6HR MIN TEMP:  35; 6HR MAX TEMP:  40;

LADYSMITH      CLOUDY    38  36  91 NE9       29.72F FOG     WCI  32
6HR MIN TEMP:  35; 6HR MAX TEMP:  38;

EAU CLAIRE     CLOUDY    40  37  89 NE8       29.68F FOG     WCI  34
6HR MIN TEMP:  35; 6HR MAX TEMP:  40;

MENOMONIE      CLOUDY    41  35  77 NE7       29.68F
6HR MIN TEMP:  34; 6HR MAX TEMP:  42;

NEW RICHMOND   CLOUDY    42  32  69 NE10      29.70F
6HR MIN TEMP:  35; 6HR MAX TEMP:  42;

OSCEOLA        CLOUDY    42  33  70 NE10      29.74F
6HR MIN TEMP:  36; 6HR MAX TEMP:  42;

$$

WIZ003>005-009-010-017-018-281900-
NORTH CENTRAL WISCONSIN

CITY           SKY/WX    TMP DP  RH WIND       PRES   REMARKS
MANITOWISH WTR CLOUDY    35  35 100 N5        29.73F FOG     WCI  31
6HR MIN TEMP:  32; 6HR MAX TEMP:  35;

ARBOR VITAE    CLOUDY    37  36  94 NE3         N/A  FOG
6HR MIN TEMP:  33; 6HR MAX TEMP:  37;

WOODRUFF       CLOUDY    37  36  94 NE3         N/A  FOG
6HR MIN TEMP:  33; 6HR MAX TEMP:  37;

RHINELANDER    NOT AVBL
EAGLE RIVER    CLOUDY    37  36  97 N5        29.72F FOG     WCI  33
6HR MIN TEMP:  31; 6HR MAX TEMP:  37;

LAND O LAKES   CLOUDY    35  34  96 N5        29.76S FOG     WCI  31
6HR MIN TEMP:  32; 6HR MAX TEMP:  38;

PHILLIPS       CLOUDY    37  34  90 N7        29.71F WCI  31
6HR MIN TEMP:  31; 6HR MAX TEMP:  37;

TOMAHAWK       CLOUDY    42  37  80 CALM      29.71F
6HR MIN TEMP:  32; 6HR MAX TEMP:  42;

MEDFORD        CLOUDY    39  37  91 E6        29.69F FOG     WCI  35
6HR MIN TEMP:  33; 6HR MAX TEMP:  39;

MERRILL        NOT AVBL
$$

WIZ029-030-035-036-043>047-281900-
CENTRAL WISCONSIN

CITY           SKY/WX    TMP DP  RH WIND       PRES   REMARKS
WAUSAU         CLOUDY    39  38  96 E5        29.69F FOG
6HR MIN TEMP:  34; 6HR MAX TEMP:  39;

MOSINEE        FOG       37  37 100 E7        29.70F VSB 1/2 WCI  32
MARSHFIELD     FOG       38  37  97 NE8       29.67F VSB 1/4 WCI  32
6HR MIN TEMP:  36; 6HR MAX TEMP:  38;

STEVENS POINT  FOG       37  37 100 E6        29.69F VSB 1/4 WCI  32
6HR MIN TEMP:  35; 6HR MAX TEMP:  37;

WAUPACA        FOG       40  40  97 N3        29.70F VSB<1/4
6HR MIN TEMP:  37; 6HR MAX TEMP:  41;

WAUTOMA        FOG       39  39 100 NE5       29.69F VSB 1/4
6HR MIN TEMP:  37; 6HR MAX TEMP:  40;

WISC RAPIDS    FOG       39  39 100 E6        29.70F VSB 1/2 WCI  35
6HR MIN TEMP:  37; 6HR MAX TEMP:  40; 6HR PCP:  0.01;

CAMP DOUGLAS   FOG       41  41 100 N3        29.67F VSB 0
                                      6HR PCP:  0.03;

$$

WIZ011>013-019>022-031-037>040-048>050-281900-
NORTHEAST WISCONSIN

CITY           SKY/WX    TMP DP  RH WIND       PRES   REMARKS
ANTIGO         FOG       37  37 100 N3        29.71F VSB 1/2
6HR MIN TEMP:  32; 6HR MAX TEMP:  37;

SHAWANO        FOG       39  38  94 NE5       29.72F VSB<1/4
6HR MIN TEMP:  36; 6HR MAX TEMP:  40; 6HR PCP:  0.01;

OCONTO         CLOUDY    38  38  99 E3        29.72F VSB 1/4
6HR MIN TEMP:  35; 6HR MAX TEMP:  38;

STURGEON BAY   LGT RAIN  40  39  97 CALM      29.73F VSB 1/4
6HR MIN TEMP:  39; 6HR MAX TEMP:  40; 6HR PCP:  0.03;

GREEN BAY      LGT RAIN  40  40 100 NE3       29.71F VSB 1/4
6HR MIN TEMP:  39; 6HR MAX TEMP:  41; 6HR PCP:  0.01;

MANITOWOC      LGT RAIN  38  37  97 S6        29.74S VSB 1/4 WCI  33
6HR MIN TEMP:  38; 6HR MAX TEMP:  40; 6HR PCP:  0.06;

APPLETON       FOG       39  39 100 VRB5      29.69F VSB 1/4
CLINTONVILLE   FOG       37  37 100 NE7       29.70F VSB<1/4 WCI  32
OSHKOSH        RAIN      38  37  97 E3        29.69F VSB 1/4
6HR MIN TEMP:  37; 6HR MAX TEMP:  39; 6HR PCP:  0.07;

$$

WIZ032>034-041-042-053>061-281900-
SOUTHWEST WISCONSIN

CITY           SKY/WX    TMP DP  RH WIND       PRES   REMARKS
LA CROSSE      CLOUDY    45  41  86 CALM      29.66F
6HR MIN TEMP:  42; 6HR MAX TEMP:  46;

SPARTA         CLOUDY    42  40  95 E5        29.68F FOG
6HR MIN TEMP:  38; 6HR MAX TEMP:  42;

VIROQUA        CLOUDY    42  42 100 E6        29.64F VSB<1/4
6HR MIN TEMP:  37; 6HR MAX TEMP:  42; 6HR PCP:  0.06;

BOSCOBEL       CLOUDY    45  44  97 NE3       29.65F FOG
6HR MIN TEMP:  41; 6HR MAX TEMP:  45; 6HR PCP:  0.20;

PRAIRIE DU CHI CLOUDY    43  42  97 CALM      29.63F FOG
6HR MIN TEMP:  35; 6HR MAX TEMP:  43; 6HR PCP:  0.20;

PLATTEVILLE    CLOUDY    57  56  99 S14       29.64F
6HR MIN TEMP:  39; 6HR MAX TEMP:  57; 6HR PCP:  0.01;

$$

WIZ056-057-062-063-064-067-068-281900-
SOUTH CENTRAL WISCONSIN

CITY           SKY/WX    TMP DP  RH WIND       PRES   REMARKS
REEDSBURG      DRZL/FOG  42  42 100 E3        29.66F VSB 1
6HR MIN TEMP:  37; 6HR MAX TEMP:  42; 6HR PCP:  0.11;

BARABOO/DELLS  DRZL/FOG  41  41  99 CALM      29.67F VSB<1/4
6HR MIN TEMP:  38; 6HR MAX TEMP:  42; 6HR PCP:  0.19;

LONE ROCK      CLOUDY    46  44  93 E6        29.66F FOG
6HR MIN TEMP:  42; 6HR MAX TEMP:  47; 6HR PCP:  0.03;

MINERAL POINT  CLOUDY    54  54 100 SW5       29.64F FOG
MADISON        FOG       46  45  96 N7        29.67S VSB 1/2
6HR MIN TEMP:  43; 6HR MAX TEMP:  47; 6HR PCP:  0.13;

MIDDLETON      CLOUDY    47  47 100 NE7       29.67F VSB 1/4
6HR MIN TEMP:  43; 6HR MAX TEMP:  48; 6HR PCP:  0.24;

WATERTOWN      CLOUDY    47  47 100 E3        29.68F FOG
6HR MIN TEMP:  41; 6HR MAX TEMP:  47;

MONROE         CLOUDY    54  54 100 S18       29.65F
JANESVILLE     CLOUDY    55  55 100 S9        29.68S
$$

WIZ051-052-058>065-066-070>072-281900-
SOUTHEAST WISCONSIN

CITY           SKY/WX    TMP DP  RH WIND       PRES   REMARKS
MILWAUKEE      CLOUDY    50  47  89 S8        29.69F FOG
6HR MIN TEMP:  42; 6HR MAX TEMP:  51;

WAUKESHA       CLOUDY    48  46  93 SE7       29.70F FOG
MILWAUKEE/TIMM CLOUDY    48  46  93 S7        29.70F FOG
RACINE         CLOUDY    46  43  89 S7        29.72F FOG
6HR MIN TEMP:  41; 6HR MAX TEMP:  46;

KENOSHA        CLOUDY    53  50  89 S14       29.71F FOG
6HR MIN TEMP:  41; 6HR MAX TEMP:  53; 6HR PCP: TRACE;

FOND DU LAC    LGT RAIN  42  40  92 E5        29.69F FOG
6HR MIN TEMP:  38; 6HR MAX TEMP:  42; 6HR PCP:  0.17;

SHEBOYGAN      LGT RAIN  39  38  96 SE7       29.69F FOG     WCI  34
6HR MIN TEMP:  37; 6HR MAX TEMP:  40; 6HR PCP:  0.21;

WEST BEND      RAIN      41  41 100 CALM      29.71S
JUNEAU         DRZL/FOG  40  40  98 MISG      29.71R VSB<1/4
6HR MIN TEMP:  40; 6HR MAX TEMP:  44; 6HR PCP:  0.56;

$$

LSZ147-162-281900-
LAKE SUPERIOR

STATION/POSITION TIME  TEMP    WIND        PRES    WAVE
                       AIR SEA DIR/SP/G            HT/PER
                 (UTC) (F)     (DEG/KT/KT) (MB)    (FT/S)
DEVILS ISLAND    1800   30      50/ 23/ 25 1010.7F
PORT WING        1740   33      50/  9/ 13 1009.8F
SAXON HARBOR     1740   32      20/  6/  7 1009.1F
$$

LMZ867-665-643>646-281900-
LAKE MICHIGAN

STATION/POSITION TIME  TEMP    WIND        PRES    WAVE
                       AIR SEA DIR/SP/G            HT/PER
                 (UTC) (F)     (DEG/KT/KT) (MB)    (FT/S)
CHAMBERS ISLAND  1730   38     100/  3/  5 1007.5F
NORTHPORT PIER   1740   37     130/  1/  4 1008.1F
SISTER BAY       1735   41     120/  7/  8   N/A
KEWAUNEE LAKESHO 1748   38     1


USA.gov is the U.S. government's official web portal to all federal, state and local government web resources and services.